DLH11 ETNL-ETNL

Flight info

Callsign DLH11
Flight time 0h 20m
Altitude 6000
Route VFR
Aircraft DA42/L-SBDGRY/S

Departure

Time 2026-04-17 06:54
Airport Rostock-Laage Airport (ETNL)

Arrival

Time 2026-04-17 07:14
Airport Rostock-Laage Airport (ETNL)
Time Latitude Longitude Altitude Speed Heading
2026-04-17 06:47 53.92183 12.26689 144 ft 0 kts 146°
2026-04-17 06:52 53.92135 12.26633 144 ft 18 kts 262°
2026-04-17 06:52 53.92190 12.26577 145 ft 14 kts 349°
2026-04-17 06:52 53.92238 12.26333 147 ft 17 kts 269°
2026-04-17 06:53 53.92087 12.26158 148 ft 38 kts 208°
2026-04-17 06:53 53.92024 12.26099 147 ft 2 kts 210°
2026-04-17 06:53 53.91953 12.26146 146 ft 18 kts 95°
2026-04-17 06:53 53.91908 12.26553 145 ft 59 kts 93°
2026-04-17 06:54 53.91859 12.27407 307 ft 74 kts 95°
2026-04-17 06:54 53.91812 12.28284 567 ft 76 kts 91°
2026-04-17 06:54 53.91803 12.29213 766 ft 84 kts 90°
2026-04-17 06:54 53.91750 12.30149 1118 ft 65 kts 82°
2026-04-17 06:55 53.92157 12.30275 1310 ft 73 kts 315°
2026-04-17 06:55 53.92519 12.29549 1476 ft 88 kts 309°
2026-04-17 06:55 53.92564 12.28538 1773 ft 85 kts 276°
2026-04-17 06:55 53.92685 12.27513 2050 ft 88 kts 279°
2026-04-17 06:56 53.92800 12.26430 2281 ft 95 kts 283°
2026-04-17 06:56 53.92957 12.25201 2130 ft 120 kts 267°
2026-04-17 06:56 53.92467 12.24338 1767 ft 107 kts 180°
2026-04-17 06:56 53.92042 12.25324 459 ft 137 kts 95°
2026-04-17 06:57 53.91907 12.26672 153 ft 89 kts 117°
2026-04-17 06:57 53.91841 12.27526 180 ft 74 kts 100°
2026-04-17 06:57 53.91754 12.28333 465 ft 72 kts 92°
2026-04-17 06:57 53.91718 12.29257 662 ft 81 kts 92°
2026-04-17 06:58 53.91705 12.30207 931 ft 80 kts 73°
2026-04-17 06:58 53.92089 12.30656 1213 ft 81 kts 357°
2026-04-17 06:58 53.92548 12.30043 1396 ft 95 kts 287°
2026-04-17 06:58 53.92606 12.28877 1608 ft 102 kts 275°
2026-04-17 06:59 53.92645 12.27612 1761 ft 107 kts 279°
2026-04-17 06:59 53.92800 12.26365 1836 ft 108 kts 287°
2026-04-17 06:59 53.92859 12.25145 1677 ft 105 kts 260°
2026-04-17 06:59 53.92365 12.24236 1320 ft 114 kts 193°
2026-04-17 07:00 53.92021 12.25059 654 ft 104 kts 79°
2026-04-17 07:00 53.91947 12.26224 171 ft 81 kts 99°
2026-04-17 07:00 53.91878 12.27030 141 ft 56 kts 98°
2026-04-17 07:00 53.91821 12.27862 248 ft 78 kts 96°
2026-04-17 07:01 53.91766 12.28677 573 ft 69 kts 89°
2026-04-17 07:01 53.91723 12.29470 855 ft 63 kts 85°
2026-04-17 07:01 53.91707 12.30264 1108 ft 63 kts 59°
2026-04-17 07:01 53.92159 12.30360 1299 ft 77 kts 327°
2026-04-17 07:02 53.92467 12.29469 1378 ft 104 kts 282°
2026-04-17 07:02 53.92565 12.28626 1429 ft 106 kts 277°
2026-04-17 07:02 53.92680 12.27428 1776 ft 93 kts 284°
2026-04-17 07:02 53.92787 12.25829 1939 ft 113 kts 277°
2026-04-17 07:03 53.92839 12.24919 1863 ft 111 kts 274°
2026-04-17 07:03 53.92526 12.23831 1383 ft 115 kts 205°
2026-04-17 07:03 53.91946 12.24342 732 ft 116 kts 103°
2026-04-17 07:03 53.91994 12.25576 279 ft 93 kts 89°
2026-04-17 07:04 53.91921 12.26536 149 ft 69 kts 98°
2026-04-17 07:04 53.91871 12.27265 140 ft 76 kts 96°
2026-04-17 07:04 53.91786 12.28255 339 ft 86 kts 97°
2026-04-17 07:04 53.91715 12.29225 653 ft 85 kts 93°
2026-04-17 07:05 53.91733 12.30224 934 ft 87 kts 85°
2026-04-17 07:05 53.91289 12.30629 1156 ft 96 kts 210°
2026-04-17 07:05 53.91102 12.29572 1378 ft 99 kts 272°
2026-04-17 07:05 53.91156 12.28342 1640 ft 87 kts 276°
2026-04-17 07:06 53.91210 12.27266 1724 ft 113 kts 283°
2026-04-17 07:06 53.91368 12.25993 1532 ft 109 kts 281°
2026-04-17 07:06 53.91493 12.24730 1293 ft 96 kts 287°
2026-04-17 07:06 53.91968 12.24266 940 ft 87 kts 22°
2026-04-17 07:07 53.92077 12.25120 648 ft 81 kts 114°
2026-04-17 07:07 53.91955 12.26006 271 ft 80 kts 86°
2026-04-17 07:07 53.91894 12.26827 143 ft 57 kts 97°
2026-04-17 07:07 53.91827 12.27666 241 ft 79 kts 98°
2026-04-17 07:08 53.91747 12.28585 494 ft 81 kts 96°
2026-04-17 07:08 53.91693 12.29552 713 ft 86 kts 90°
2026-04-17 07:08 53.91703 12.30566 937 ft 85 kts 82°
2026-04-17 07:08 53.91489 12.31352 1244 ft 78 kts 151°
2026-04-17 07:09 53.91235 12.30666 1290 ft 97 kts 266°
2026-04-17 07:09 53.91183 12.29308 1207 ft 119 kts 269°
2026-04-17 07:09 53.91208 12.27950 1434 ft 112 kts 284°
2026-04-17 07:09 53.91382 12.26689 1623 ft 113 kts 279°
2026-04-17 07:10 53.91399 12.25284 1613 ft 127 kts 273°
2026-04-17 07:10 53.91566 12.23892 1173 ft 119 kts 305°
2026-04-17 07:10 53.92106 12.23969 1023 ft 85 kts 72°
2026-04-17 07:10 53.92024 12.24988 607 ft 81 kts 102°
2026-04-17 07:11 53.91973 12.25930 227 ft 77 kts 97°
2026-04-17 07:11 53.91911 12.26701 143 ft 52 kts 96°
2026-04-17 07:11 53.91847 12.27433 217 ft 72 kts 97°
2026-04-17 07:11 53.91777 12.28232 503 ft 69 kts 94°
2026-04-17 07:12 53.91679 12.29049 743 ft 71 kts 94°
2026-04-17 07:12 53.91878 12.29747 984 ft 76 kts 17°
2026-04-17 07:12 53.92309 12.29351 1187 ft 83 kts 284°
2026-04-17 07:12 53.92366 12.28328 1367 ft 91 kts 277°
2026-04-17 07:13 53.92461 12.27188 1471 ft 99 kts 278°
2026-04-17 07:13 53.92564 12.25981 1481 ft 110 kts 279°
2026-04-17 07:13 53.92561 12.24808 1425 ft 84 kts 256°
2026-04-17 07:13 53.92129 12.24417 835 ft 91 kts 135°
2026-04-17 07:14 53.92020 12.25449 322 ft 86 kts 102°
2026-04-17 07:14 53.91937 12.26327 152 ft 65 kts 99°
2026-04-17 07:14 53.91892 12.26934 142 ft 42 kts 97°
2026-04-17 07:14 53.91859 12.27363 138 ft 32 kts 98°
2026-04-17 07:15 53.91820 12.27823 137 ft 62 kts 97°
2026-04-17 07:15 53.91750 12.28699 318 ft 75 kts 96°
2026-04-17 07:15 53.91694 12.29596 577 ft 77 kts 92°
2026-04-17 07:15 53.91629 12.30455 851 ft 76 kts 97°
2026-04-17 07:16 53.91282 12.31092 1017 ft 87 kts 173°
2026-04-17 07:16 53.90764 12.30760 1244 ft 91 kts 252°
2026-04-17 07:16 53.90775 12.29555 1280 ft 110 kts 276°
2026-04-17 07:16 53.90855 12.28221 1258 ft 121 kts 278°
2026-04-17 07:17 53.90979 12.26798 1320 ft 116 kts 287°
2026-04-17 07:17 53.91205 12.25493 1381 ft 109 kts 294°
2026-04-17 07:17 53.92054 12.25500 572 ft 86 kts 91°
2026-04-17 07:18 53.91920 12.26532 162 ft 74 kts 96°
2026-04-17 07:18 53.91863 12.27236 139 ft 48 kts 96°
2026-04-17 07:18 53.91826 12.27701 138 ft 33 kts 99°
2026-04-17 07:18 53.91804 12.28048 136 ft 26 kts 92°
2026-04-17 07:19 53.91777 12.28321 132 ft 25 kts 97°
2026-04-17 07:19 53.91728 12.28945 133 ft 78 kts 96°
2026-04-17 07:19 53.91647 12.29769 480 ft 63 kts 90°
2026-04-17 07:19 53.91742 12.30540 688 ft 71 kts 52°
2026-04-17 07:20 53.92227 12.30688 885 ft 80 kts
2026-04-17 07:20 53.92484 12.30124 1136 ft 86 kts 271°
2026-04-17 07:20 53.92530 12.29079 1369 ft 94 kts 275°
2026-04-17 07:20 53.92588 12.27925 1503 ft 102 kts 277°
2026-04-17 07:21 53.92681 12.26652 1469 ft 117 kts 277°
2026-04-17 07:21 53.92750 12.25329 1288 ft 109 kts 266°
2026-04-17 07:21 53.92227 12.24851 684 ft 113 kts 162°
2026-04-17 07:21 53.91974 12.25887 280 ft 77 kts 105°
2026-04-17 07:22 53.91903 12.26751 146 ft 63 kts 98°
2026-04-17 07:22 53.91861 12.27360 138 ft 45 kts 98°
2026-04-17 07:22 53.91822 12.27814 137 ft 34 kts 96°
2026-04-17 07:22 53.91790 12.28199 135 ft 30 kts 95°
2026-04-17 07:23 53.91810 12.28341 132 ft 7 kts
2026-04-17 07:23 53.91963 12.28376 132 ft 36 kts
2026-04-17 07:23 53.92080 12.28363 132 ft 9 kts 320°
2026-04-17 07:23 53.92098 12.28182 133 ft 42 kts 277°
2026-04-17 07:24 53.92156 12.27455 139 ft 60 kts 280°
2026-04-17 07:24 53.92187 12.27027 142 ft 25 kts 278°
2026-04-17 07:24 53.92203 12.26810 143 ft 5 kts 268°
2026-04-17 07:24 53.92176 12.26808 143 ft 6 kts 166°
2026-04-17 07:25 53.92171 12.26809 143 ft 0 kts 182°